User: anonymous   Login
Location: Nirvana
(45.0297°N, 77.2628°W)
Time: 23:56:04
(UTC-04:00)
Language:

H-2A R/B - Orbit

View from above orbital plane
View from above orbital plane
View from above satellite
View from above satellite

Ground track
Ground track

The orbit data is extracted from the following two-line orbital elements,

1 27601U 02056E   15117.86572687  .00000274  00000-0  11516-3 0  9993
2 27601 098.4548 197.8830 0073451 089.2330 024.0059 14.31585487646010
Epoch (UTC): 27 April 2015 20:46:38
Eccentricity: 0.0073451
inclination: 98.4548°
perigee height: 734 km
apogee height: 839 km
right ascension of ascending node: 197.8830°
argument of perigee: 89.2330°
revolutions per day: 14.31585487
mean anomaly at epoch: 24.0059°
orbit number at epoch: 64601

The dashed part of the orbit path shows where the satellite is in the earth's shadow,  

DLR